| time (UTC) | temp F | wind direction | speed MPH | gust MPH | rain 1hr in | rain 24hr in | rain mn in | humidity % | barometer mb |
| 20260507072502 | 49 | 184 | 2.0 | 5.0 | 0.00 | 0.05 | 0.00 | 9 | 974.0 |
| 20260507063502 | 49 | 184 | 2.0 | 5.0 | 0.00 | 0.05 | 0.00 | 9 | 974.0 |
| 20260507054503 | 49 | 206 | 1.0 | 0.0 | 0.00 | 0.05 | 0.00 | 9 | 973.0 |
| 20260507045503 | 52 | 317 | 3.0 | 9.0 | 0.00 | 0.37 | 0.00 | 9 | 971.0 |
| 20260506195504 | 56 | 3 | 3.0 | 7.0 | 0.01 | 0.37 | 0.00 | 8 | 970.0 |
| 20260506195205 | 56 | 3 | 3.0 | 7.0 | 0.01 | 0.37 | 0.00 | 8 | 970.0 |
| 20260506190504 | 56 | 3 | 3.0 | 7.0 | 0.01 | 0.37 | 0.00 | 8 | 970.0 |
| 20260506181504 | 56 | 3 | 3.0 | 7.0 | 0.01 | 0.37 | 0.00 | 8 | 970.0 |
| 20260506172504 | 59 | 180 | 0.0 | 8.0 | 0.00 | 0.37 | 0.00 | 7 | 970.0 |
| 20260506163504 | 59 | 180 | 0.0 | 8.0 | 0.00 | 0.37 | 0.00 | 7 | 970.0 |
| 20260506163205 | 59 | 180 | 0.0 | 8.0 | 0.00 | 0.37 | 0.00 | 7 | 970.0 |
| 20260506154504 | 59 | 90 | 1.0 | 11.0 | 0.00 | 0.37 | 0.00 | 7 | 970.0 |
| 20260506145503 | 59 | 90 | 1.0 | 11.0 | 0.00 | 0.37 | 0.00 | 7 | 970.0 |
| 20260506140503 | 59 | 90 | 1.0 | 11.0 | 0.00 | 0.37 | 0.00 | 7 | 970.0 |
| 20260506131503 | 58 | 44 | 1.0 | 7.0 | 0.00 | 0.37 | 0.00 | 7 | 970.0 |
| 20260506122503 | 58 | 44 | 1.0 | 7.0 | 0.00 | 0.37 | 0.00 | 7 | 970.0 |
| 20260506113503 | 54 | 118 | 2.0 | 8.0 | 0.00 | 0.53 | 0.00 | 8 | 970.0 |
| 20260506104503 | 54 | 118 | 2.0 | 8.0 | 0.00 | 0.53 | 0.00 | 8 | 970.0 |
| 20260506095503 | 51 | 132 | 3.0 | 7.0 | 0.00 | 0.53 | 0.00 | 9 | 969.0 |
| 20260506090503 | 51 | 132 | 3.0 | 7.0 | 0.00 | 0.53 | 0.00 | 9 | 969.0 |
| 20260506081503 | 51 | 132 | 3.0 | 7.0 | 0.00 | 0.53 | 0.00 | 9 | 969.0 |